TimeEST,TemperatureF,Dew PointF,Humidity,Sea Level PressureIn,VisibilityMPH,Wind Direction,Wind SpeedMPH,Gust SpeedMPH,PrecipitationIn,Events,Conditions,WindDirDegrees,DateUTC
12:53 AM,75.0,69.1,82,30.19,10.0,East,12.7,-,N/A,,Mostly Cloudy,100,2013-01-29 05:53:00
1:53 AM,75.0,68.0,79,30.18,10.0,ESE,12.7,-,N/A,,Overcast,110,2013-01-29 06:53:00
2:53 AM,75.0,66.9,76,30.17,10.0,ESE,13.8,-,N/A,,Overcast,110,2013-01-29 07:53:00
3:53 AM,75.0,66.9,76,30.16,10.0,ESE,12.7,-,N/A,,Overcast,120,2013-01-29 08:53:00
4:53 AM,73.9,66.9,79,30.15,10.0,ESE,12.7,-,N/A,,Scattered Clouds,110,2013-01-29 09:53:00
5:53 AM,73.9,68.0,82,30.16,10.0,ESE,11.5,-,N/A,,Partly Cloudy,120,2013-01-29 10:53:00
6:53 AM,73.9,66.0,76,30.17,10.0,ESE,11.5,-,N/A,,Partly Cloudy,110,2013-01-29 11:53:00
7:53 AM,75.0,68.0,79,30.19,10.0,ESE,10.4,-,N/A,,Scattered Clouds,110,2013-01-29 12:53:00
8:53 AM,78.1,68.0,71,30.19,10.0,SE,13.8,-,N/A,,Scattered Clouds,130,2013-01-29 13:53:00
9:53 AM,79.0,69.1,72,30.20,10.0,ESE,11.5,19.6,N/A,,Scattered Clouds,120,2013-01-29 14:53:00
10:53 AM,80.1,69.1,69,30.19,10.0,ESE,17.3,-,N/A,,Scattered Clouds,120,2013-01-29 15:53:00
11:53 AM,81.0,69.1,67,30.17,10.0,ESE,16.1,-,N/A,,Scattered Clouds,120,2013-01-29 16:53:00
12:53 PM,81.0,69.1,67,30.15,10.0,ESE,13.8,23.0,N/A,,Scattered Clouds,120,2013-01-29 17:53:00
1:53 PM,80.1,69.1,69,30.12,10.0,ESE,16.1,-,N/A,,Scattered Clouds,110,2013-01-29 18:53:00
2:53 PM,80.1,68.0,67,30.11,10.0,ESE,13.8,-,N/A,,Scattered Clouds,110,2013-01-29 19:53:00
3:53 PM,79.0,66.9,66,30.09,10.0,ESE,17.3,24.2,N/A,,Scattered Clouds,120,2013-01-29 20:53:00
4:53 PM,78.1,66.9,68,30.10,10.0,ESE,16.1,-,N/A,,Scattered Clouds,120,2013-01-29 21:53:00
5:53 PM,75.9,66.9,74,30.10,10.0,ESE,12.7,-,N/A,,Scattered Clouds,120,2013-01-29 22:53:00
6:53 PM,75.0,68.0,79,30.11,7.0,ESE,13.8,-,N/A,,Scattered Clouds,110,2013-01-29 23:53:00
7:53 PM,75.0,68.0,79,30.12,10.0,ESE,13.8,-,N/A,,Scattered Clouds,120,2013-01-30 00:53:00
8:53 PM,75.0,68.0,79,30.12,10.0,ESE,13.8,-,N/A,,Scattered Clouds,110,2013-01-30 01:53:00
9:53 PM,75.0,68.0,79,30.12,10.0,ESE,15.0,-,N/A,,Scattered Clouds,110,2013-01-30 02:53:00
10:53 PM,73.9,66.9,79,30.11,10.0,ESE,18.4,-,N/A,,Clear,110,2013-01-30 03:53:00
11:53 PM,73.9,66.9,79,30.09,10.0,ESE,17.3,24.2,N/A,,Clear,110,2013-01-30 04:53:00